QPF
0.00 0.00 0.00 0.00 0.00 0.00 0.00 0.00 0.00 0.00 0.00 0.00 0.00 0.00 0.00 0.00 0.00 0.00 0.00 0.00 0.00 0.00 0.00 0.00 0.00 0.00 0.00 0.00 0.01 0.01 0.01 0.01 0.02 0.02 0.02 0.04 0.03 0.01 0.01 0.01 0.01 0.02 0.02
0.00 0.00 0.00 0.00 0.00 0.00 0.00 0.00 0.00 0.00 0.00 0.00 0.00 0.00 0.00 0.00 0.00 0.00 0.00 0.00 0.00 0.00 0.00 0.00 0.00 0.00 0.00 0.00 0.00 0.01 0.01 0.01 0.01 0.01 0.01 0.02 0.01 0.00 0.01 0.01 0.01 0.01 0.01
0.00 0.00 0.00 0.00 0.00 0.00 0.00 0.00 0.00 0.00 0.00 0.00 0.00 0.00 0.00 0.00 0.00 0.00 0.00 0.00 0.00 0.00 0.00 0.00 0.00 0.00 0.00 0.00 0.00 0.00 0.00 0.00 0.01 0.01 0.01 0.01 0.00 0.01 0.03 0.04 0.02 0.00 0.01
0.00 0.00 0.00 0.00 0.00 0.00 0.00 0.00 0.00 0.00 0.00 0.00 0.00 0.00 0.00 0.00 0.00 0.00 0.00 0.00 0.00 0.00 0.00 0.00 0.00 0.00 0.00 0.00 0.00 0.00 0.01 0.01 0.00 0.00 0.01 0.00 0.01 0.01 0.02 0.03 0.02 0.02 0.02
0.00 0.00 0.00 0.00 0.00 0.00 0.00 0.00 0.00 0.00 0.00 0.00 0.00 0.00 0.00 0.00 0.00 0.00 0.00 0.00 0.00 0.00 0.00 0.00 0.00 0.00 0.00 0.00 0.00 0.00 0.00 0.00 0.00 0.00 0.01 0.01 0.01 0.02 0.02 0.03 0.03 0.03 0.02
0.00 0.00 0.00 0.00 0.00 0.00 0.00 0.00 0.00 0.00 0.00 0.00 0.00 0.00 0.00 0.00 0.00 0.00 0.00 0.00 0.00 0.00 0.00 0.00 0.00 0.00 0.00 0.00 0.00 0.00 0.00 0.00 0.00 0.00 0.01 0.00 0.01 0.01 0.01 0.01 0.01 0.01 0.01
0.00 0.00 0.00 0.00 0.00 0.00 0.00 0.00 0.00 0.00 0.00 0.00 0.00 0.00 0.00 0.00 0.00 0.00 0.00 0.00 0.00 0.00 0.00 0.00 0.00 0.00 0.00 0.00 0.00 0.00 0.00 0.00 0.00 0.00 0.00 0.00 0.01 0.01 0.01 0.01 0.01 0.01 0.01
0.00 0.00 0.00 0.00 0.00 0.00 0.00 0.00 0.00 0.00 0.00 0.00 0.00 0.00 0.00 0.00 0.00 0.00 0.00 0.00 0.00 0.00 0.00 0.00 0.00 0.00 0.00 0.00 0.00 0.00 0.00 0.00 0.00 0.00 0.00 0.00 0.00 0.00 0.01 0.00 0.00 0.00 0.00
0.00 0.01 0.00 0.00 0.00 0.00 0.00 0.00 0.00 0.00 0.00 0.00 0.00 0.00 0.00 0.00 0.00 0.00 0.00 0.00 0.00 0.00 0.00 0.00 0.00 0.00 0.00 0.00 0.00 0.00 0.00 0.00 0.00 0.00 0.00 0.00 0.00 0.00 0.00 0.00 0.00 0.00 0.00
0.00 0.01 0.01 0.00 0.00 0.00 0.00 0.01 0.01 0.01 0.00 0.00 0.00 0.00 0.00 0.00 0.00 0.00 0.00 0.00 0.00 0.00 0.00 0.00 0.00 0.00 0.00 0.00 0.00 0.00 0.00 0.00 0.00 0.00 0.00 0.00 0.00 0.00 0.00 0.00 0.00 0.00 0.00
0.00 0.01 0.01 0.01 0.00 0.00 0.01 0.01 0.01 0.01 0.01 0.00 0.00 0.00 0.00 0.00 0.00 0.00 0.00 0.00 0.00 0.00 0.00 0.00 0.00 0.00 0.00 0.00 0.00 0.00 0.00 0.00 0.00 0.00 0.00 0.00 0.00 0.00 0.00 0.00 0.00 0.00 0.00
0.00 0.01 0.01 0.01 0.01 0.01 0.01 0.01 0.01 0.01 0.01 0.01 0.01 0.00 0.00 0.00 0.00 0.00 0.00 0.00 0.00 0.00 0.00 0.00 0.00 0.00 0.00 0.00 0.00 0.00 0.00 0.00 0.00 0.00 0.00 0.00 0.01 0.00 0.00 0.00 0.00 0.00 0.00
0.00 0.00 0.01 0.01 0.01 0.01 0.01 0.01 0.01 0.01 0.01 0.01 0.00 0.00 0.00 0.00 0.00 0.00 0.00 0.00 0.00 0.00 0.00 0.00 0.00 0.00 0.00 0.00 0.00 0.00 0.00 0.00 0.00 0.00 0.00 0.00 0.01 0.00 0.00 0.01 0.01 0.01 0.01
0.01 0.00 0.00 0.00 0.01 0.01 0.01 0.01 0.00 0.01 0.01 0.01 0.01 0.01 0.01 0.00 0.00 0.00 0.00 0.00 0.00 0.00 0.00 0.00 0.00 0.00 0.00 0.00 0.00 0.00 0.00 0.00 0.00 0.00 0.00 0.01 0.01 0.00 0.01 0.01 0.01 0.01 0.01
0.01 0.01 0.00 0.00 0.00 0.00 0.00 0.00 0.00 0.00 0.01 0.01 0.01 0.01 0.01 0.01 0.01 0.01 0.00 0.00 0.00 0.00 0.00 0.00 0.00 0.00 0.00 0.00 0.00 0.00 0.00 0.00 0.00 0.00 0.00 0.00 0.00 0.00 0.01 0.01 0.01 0.01 0.01
0.01 0.01 0.01 0.00 0.00 0.00 0.00 0.00 0.00 0.00 0.00 0.00 0.00 0.01 0.01 0.01 0.01 0.01 0.01 0.01 0.01 0.00 0.00 0.00 0.00 0.00 0.00 0.00 0.01 0.00 0.00 0.00 0.00 0.00 0.00 0.00 0.00 0.00 0.00 0.00 0.00 0.00 0.00
0.01 0.01 0.00 0.00 0.00 0.00 0.00 0.00 0.00 0.00 0.00 0.00 0.00 0.00 0.00 0.01 0.01 0.00 0.00 0.01 0.01 0.00 0.00 0.00 0.00 0.00 0.00 0.00 0.00 0.00 0.00 0.00 0.00 0.00 0.00 0.00 0.00 0.00 0.00 0.00 0.00 0.00 0.00
0.01 0.02 0.01 0.00 0.00 0.00 0.00 0.00 0.00 0.00 0.00 0.00 0.00 0.00 0.00 0.00 0.00 0.01 0.01 0.01 0.01 0.00 0.00 0.00 0.00 0.00 0.00 0.00 0.00 0.00 0.00 0.00 0.00 0.00 0.00 0.00 0.00 0.00 0.00 0.00 0.00 0.00 0.00
0.00 0.00 0.01 0.01 0.01 0.00 0.00 0.00 0.00 0.00 0.00 0.00 0.00 0.00 0.01 0.00 0.00 0.01 0.01 0.01 0.01 0.00 0.00 0.00 0.00 0.00 0.00 0.00 0.00 0.00 0.00 0.00 0.00 0.00 0.00 0.00 0.00 0.00 0.00 0.00 0.00 0.00 0.00
0.00 0.00 0.00 0.00 0.01 0.01 0.01 0.00 0.00 0.00 0.01 0.01 0.01 0.01 0.01 0.01 0.01 0.01 0.01 0.01 0.01 0.00 0.00 0.00 0.00 0.00 0.00 0.00 0.00 0.00 0.00 0.00 0.00 0.00 0.00 0.00 0.00 0.00 0.00 0.00 0.00 0.00 0.00
0.00 0.00 0.00 0.00 0.01 0.01 0.01 0.01 0.01 0.01 0.01 0.01 0.01 0.01 0.00 0.00 0.01 0.01 0.01 0.01 0.01 0.00 0.00 0.00 0.00 0.00 0.00 0.00 0.00 0.00 0.00 0.00 0.00 0.00 0.00 0.00 0.00 0.00 0.00 0.00 0.00 0.00 0.00
0.00 0.00 0.00 0.00 0.01 0.01 0.01 0.01 0.01 0.01 0.01 0.01 0.01 0.01 0.00 0.00 0.00 0.01 0.01 0.01 0.00 0.00 0.00 0.00 0.00 0.00 0.01 0.01 0.01 0.01 0.00 0.00 0.00 0.00 0.00 0.00 0.00 0.00 0.00 0.00 0.00 0.00 0.00
0.00 0.00 0.00 0.00 0.00 0.00 0.01 0.01 0.01 0.01 0.01 0.01 0.01 0.00 0.00 0.00 0.00 0.00 0.00 0.00 0.00 0.00 0.00 0.00 0.00 0.00 0.01 0.01 0.01 0.01 0.01 0.01 0.00 0.00 0.01 0.01 0.01 0.01 0.01 0.01 0.01 0.01 0.00
0.00 0.00 0.00 0.00 0.00 0.00 0.00 0.00 0.00 0.00 0.00 0.00 0.00 0.00 0.00 0.00 0.00 0.00 0.00 0.00 0.00 0.01 0.01 0.01 0.01 0.01 0.01 0.02 0.02 0.02 0.02 0.02 0.02 0.02 0.01 0.01 0.01 0.01 0.01 0.01 0.01 0.00 0.00
0.00 0.00 0.00 0.00 0.00 0.00 0.00 0.00 0.00 0.01 0.01 0.00 0.00 0.00 0.00 0.00 0.01 0.01 0.01 0.00 0.01 0.01 0.01 0.02 0.02 0.02 0.02 0.02 0.03 0.03 0.03 0.03 0.02 0.02 0.01 0.01 0.01 0.01 0.01 0.01 0.01 0.01 0.01
0.00 0.00 0.00 0.00 0.00 0.00 0.00 0.00 0.00 0.00 0.00 0.01 0.01 0.01 0.01 0.01 0.01 0.01 0.01 0.01 0.01 0.01 0.01 0.02 0.02 0.02 0.02 0.02 0.02 0.02 0.02 0.02 0.02 0.01 0.01 0.01 0.00 0.01 0.01 0.01 0.01 0.01 0.01
MSLP
1017.63 1018.11 1018.58 1019.03 1019.43 1019.75 1020.00 1020.18 1020.31 1020.41 1020.49 1020.56 1020.63 1020.69 1020.74 1020.75 1020.72 1020.64 1020.52 1020.36 1020.18 1020.01 1019.86 1019.74 1019.68 1019.67 1019.72 1019.81 1019.93 1020.06 1020.20 1020.34 1020.48 1020.60 1020.73 1020.86 1020.99 1021.14 1021.29 1021.45 1021.62 1021.78 1021.92
1017.61 1018.07 1018.52 1018.95 1019.33 1019.65 1019.91 1020.11 1020.26 1020.39 1020.50 1020.62 1020.73 1020.83 1020.91 1020.97 1020.99 1020.96 1020.89 1020.78 1020.65 1020.51 1020.38 1020.27 1020.20 1020.17 1020.18 1020.22 1020.29 1020.38 1020.47 1020.57 1020.67 1020.77 1020.88 1021.01 1021.14 1021.29 1021.45 1021.62 1021.80 1021.97 1022.13
1017.54 1017.99 1018.43 1018.84 1019.21 1019.53 1019.79 1020.01 1020.20 1020.37 1020.52 1020.67 1020.82 1020.97 1021.09 1021.18 1021.24 1021.25 1021.22 1021.16 1021.07 1020.97 1020.87 1020.79 1020.74 1020.70 1020.70 1020.72 1020.76 1020.81 1020.87 1020.93 1021.00 1021.07 1021.16 1021.25 1021.37 1021.49 1021.63 1021.77 1021.91 1022.06 1022.20
1017.42 1017.87 1018.30 1018.70 1019.06 1019.39 1019.67 1019.92 1020.14 1020.35 1020.55 1020.75 1020.94 1021.11 1021.26 1021.38 1021.46 1021.50 1021.50 1021.47 1021.42 1021.36 1021.30 1021.25 1021.23 1021.21 1021.22 1021.24 1021.27 1021.30 1021.33 1021.37 1021.41 1021.46 1021.51 1021.58 1021.65 1021.74 1021.82 1021.91 1022.01 1022.10 1022.19
1017.24 1017.70 1018.13 1018.53 1018.90 1019.23 1019.54 1019.82 1020.09 1020.34 1020.59 1020.83 1021.05 1021.25 1021.42 1021.55 1021.64 1021.69 1021.71 1021.70 1021.67 1021.65 1021.63 1021.62 1021.62 1021.64 1021.67 1021.71 1021.74 1021.77 1021.79 1021.82 1021.84 1021.86 1021.89 1021.92 1021.96 1022.00 1022.03 1022.07 1022.10 1022.12 1022.15
1017.01 1017.48 1017.92 1018.33 1018.71 1019.06 1019.38 1019.70 1020.01 1020.31 1020.60 1020.88 1021.14 1021.36 1021.54 1021.67 1021.76 1021.80 1021.82 1021.82 1021.82 1021.82 1021.83 1021.86 1021.90 1021.96 1022.01 1022.07 1022.11 1022.14 1022.17 1022.18 1022.19 1022.20 1022.21 1022.22 1022.23 1022.23 1022.22 1022.21 1022.19 1022.16 1022.13
1016.73 1017.22 1017.67 1018.08 1018.47 1018.83 1019.18 1019.53 1019.88 1020.23 1020.56 1020.87 1021.15 1021.38 1021.57 1021.70 1021.78 1021.82 1021.84 1021.84 1021.85 1021.88 1021.92 1021.98 1022.05 1022.14 1022.22 1022.29 1022.34 1022.38 1022.40 1022.41 1022.41 1022.41 1022.41 1022.41 1022.40 1022.38 1022.36 1022.32 1022.26 1022.20 1022.13
1016.38 1016.88 1017.34 1017.76 1018.16 1018.54 1018.91 1019.29 1019.67 1020.05 1020.41 1020.75 1021.05 1021.30 1021.49 1021.62 1021.70 1021.74 1021.76 1021.77 1021.79 1021.84 1021.91 1022.00 1022.10 1022.20 1022.30 1022.38 1022.44 1022.47 1022.49 1022.48 1022.47 1022.46 1022.46 1022.45 1022.44 1022.43 1022.41 1022.36 1022.31 1022.23 1022.15
1015.97 1016.47 1016.93 1017.36 1017.76 1018.14 1018.54 1018.93 1019.34 1019.74 1020.14 1020.50 1020.82 1021.08 1021.28 1021.42 1021.50 1021.56 1021.59 1021.63 1021.68 1021.75 1021.85 1021.96 1022.09 1022.21 1022.31 1022.39 1022.44 1022.46 1022.46 1022.44 1022.41 1022.39 1022.38 1022.37 1022.37 1022.38 1022.37 1022.35 1022.31 1022.25 1022.18
1015.49 1015.98 1016.43 1016.86 1017.26 1017.66 1018.06 1018.47 1018.90 1019.32 1019.73 1020.11 1020.45 1020.73 1020.95 1021.11 1021.23 1021.31 1021.38 1021.45 1021.54 1021.65 1021.78 1021.93 1022.07 1022.21 1022.32 1022.39 1022.42 1022.42 1022.39 1022.34 1022.30 1022.26 1022.23 1022.23 1022.24 1022.26 1022.28 1022.28 1022.28 1022.25 1022.21
1014.95 1015.42 1015.86 1016.28 1016.68 1017.08 1017.49 1017.92 1018.35 1018.79 1019.22 1019.62 1019.98 1020.29 1020.54 1020.74 1020.91 1021.04 1021.16 1021.29 1021.43 1021.58 1021.76 1021.93 1022.10 1022.25 1022.35 1022.41 1022.43 1022.40 1022.34 1022.27 1022.19 1022.13 1022.09 1022.08 1022.09 1022.13 1022.16 1022.20 1022.23 1022.23 1022.22
1014.37 1014.82 1015.24 1015.65 1016.05 1016.46 1016.88 1017.31 1017.75 1018.20 1018.65 1019.07 1019.45 1019.80 1020.09 1020.35 1020.57 1020.76 1020.95 1021.14 1021.34 1021.56 1021.78 1021.99 1022.18 1022.33 1022.44 1022.49 1022.49 1022.44 1022.35 1022.25 1022.15 1022.07 1022.01 1021.99 1021.99 1022.02 1022.07 1022.12 1022.17 1022.20 1022.21
1013.80 1014.22 1014.63 1015.03 1015.43 1015.84 1016.26 1016.70 1017.15 1017.61 1018.06 1018.50 1018.92 1019.30 1019.65 1019.96 1020.24 1020.51 1020.77 1021.03 1021.29 1021.56 1021.81 1022.06 1022.27 1022.43 1022.54 1022.59 1022.57 1022.51 1022.41 1022.29 1022.17 1022.07 1021.99 1021.95 1021.95 1021.97 1022.01 1022.06 1022.11 1022.15 1022.17
1013.30 1013.69 1014.08 1014.47 1014.86 1015.27 1015.69 1016.13 1016.58 1017.04 1017.51 1017.97 1018.41 1018.83 1019.22 1019.59 1019.94 1020.27 1020.59 1020.91 1021.23 1021.53 1021.83 1022.09 1022.31 1022.48 1022.59 1022.64 1022.62 1022.56 1022.46 1022.33 1022.21 1022.10 1022.01 1021.96 1021.94 1021.94 1021.97 1022.00 1022.04 1022.07 1022.08
1012.89 1013.25 1013.62 1014.00 1014.38 1014.78 1015.20 1015.63 1016.08 1016.54 1017.02 1017.49 1017.95 1018.40 1018.83 1019.25 1019.64 1020.03 1020.40 1020.76 1021.10 1021.43 1021.74 1022.01 1022.23 1022.40 1022.51 1022.56 1022.55 1022.50 1022.41 1022.30 1022.18 1022.08 1021.99 1021.93 1021.90 1021.89 1021.89 1021.91 1021.92 1021.93 1021.93
1012.62 1012.95 1013.29 1013.64 1014.01 1014.39 1014.79 1015.21 1015.65 1016.11 1016.58 1017.05 1017.53 1018.00 1018.46 1018.90 1019.33 1019.74 1020.13 1020.51 1020.86 1021.19 1021.48 1021.74 1021.96 1022.12 1022.23 1022.28 1022.28 1022.25 1022.18 1022.10 1022.01 1021.93 1021.86 1021.81 1021.77 1021.75 1021.74 1021.73 1021.72 1021.71 1021.68
1012.46 1012.75 1013.06 1013.39 1013.73 1014.09 1014.46 1014.86 1015.28 1015.72 1016.18 1016.65 1017.12 1017.60 1018.06 1018.52 1018.95 1019.37 1019.76 1020.13 1020.47 1020.77 1021.04 1021.27 1021.46 1021.61 1021.71 1021.77 1021.79 1021.78 1021.75 1021.70 1021.65 1021.61 1021.56 1021.53 1021.50 1021.48 1021.47 1021.45 1021.43 1021.40 1021.36
1012.41 1012.65 1012.92 1013.20 1013.51 1013.83 1014.17 1014.54 1014.93 1015.34 1015.78 1016.24 1016.70 1017.17 1017.63 1018.07 1018.50 1018.90 1019.27 1019.62 1019.92 1020.19 1020.42 1020.62 1020.78 1020.91 1021.00 1021.07 1021.11 1021.13 1021.14 1021.13 1021.13 1021.12 1021.11 1021.11 1021.10 1021.09 1021.08 1021.06 1021.04 1021.00 1020.96
1012.41 1012.60 1012.82 1013.06 1013.31 1013.59 1013.90 1014.23 1014.58 1014.97 1015.38 1015.81 1016.25 1016.69 1017.13 1017.56 1017.96 1018.34 1018.68 1018.99 1019.26 1019.49 1019.69 1019.85 1019.99 1020.10 1020.19 1020.27 1020.33 1020.38 1020.43 1020.47 1020.51 1020.54 1020.57 1020.59 1020.61 1020.62 1020.62 1020.61 1020.59 1020.57 1020.53
1012.44 1012.58 1012.75 1012.93 1013.14 1013.38 1013.64 1013.93 1014.25 1014.60 1014.98 1015.37 1015.78 1016.20 1016.61 1017.01 1017.38 1017.73 1018.04 1018.31 1018.55 1018.76 1018.93 1019.08 1019.20 1019.32 1019.42 1019.51 1019.60 1019.68 1019.76 1019.84 1019.91 1019.98 1020.04 1020.08 1020.12 1020.15 1020.17 1020.18 1020.17 1020.16 1020.14
1012.51 1012.60 1012.71 1012.85 1013.01 1013.21 1013.43 1013.68 1013.96 1014.28 1014.61 1014.97 1015.35 1015.73 1016.10 1016.47 1016.81 1017.13 1017.42 1017.68 1017.90 1018.10 1018.27 1018.42 1018.56 1018.69 1018.81 1018.93 1019.05 1019.17 1019.28 1019.38 1019.48 1019.57 1019.65 1019.71 1019.76 1019.80 1019.83 1019.85 1019.86 1019.86 1019.85
1012.63 1012.68 1012.75 1012.85 1012.98 1013.14 1013.33 1013.54 1013.79 1014.06 1014.36 1014.68 1015.01 1015.35 1015.70 1016.03 1016.35 1016.65 1016.93 1017.18 1017.41 1017.62 1017.81 1017.99 1018.17 1018.33 1018.50 1018.66 1018.81 1018.96 1019.09 1019.22 1019.33 1019.42 1019.50 1019.57 1019.62 1019.66 1019.69 1019.71 1019.73 1019.74 1019.74
1012.87 1012.88 1012.93 1013.01 1013.11 1013.25 1013.41 1013.60 1013.81 1014.05 1014.30 1014.58 1014.87 1015.17 1015.48 1015.78 1016.08 1016.37 1016.65 1016.91 1017.17 1017.41 1017.65 1017.88 1018.11 1018.33 1018.54 1018.75 1018.94 1019.11 1019.27 1019.40 1019.51 1019.60 1019.67 1019.71 1019.75 1019.77 1019.79 1019.80 1019.81 1019.82 1019.82
1013.27 1013.27 1013.31 1013.38 1013.48 1013.60 1013.74 1013.91 1014.09 1014.29 1014.51 1014.74 1014.99 1015.25 1015.52 1015.79 1016.07 1016.36 1016.65 1016.94 1017.23 1017.52 1017.81 1018.10 1018.39 1018.67 1018.94 1019.19 1019.41 1019.61 1019.78 1019.91 1020.00 1020.07 1020.11 1020.13 1020.13 1020.13 1020.12 1020.11 1020.10 1020.09 1020.08
1013.87 1013.89 1013.93 1014.00 1014.10 1014.21 1014.34 1014.49 1014.64 1014.81 1014.99 1015.19 1015.39 1015.61 1015.85 1016.10 1016.37 1016.66 1016.96 1017.27 1017.60 1017.94 1018.29 1018.63 1018.98 1019.31 1019.62 1019.91 1020.16 1020.36 1020.52 1020.64 1020.71 1020.74 1020.74 1020.72 1020.68 1020.64 1020.60 1020.56 1020.52 1020.48 1020.44
1014.68 1014.71 1014.77 1014.85 1014.95 1015.07 1015.19 1015.32 1015.45 1015.59 1015.74 1015.90 1016.07 1016.26 1016.47 1016.70 1016.96 1017.25 1017.56 1017.89 1018.25 1018.62 1019.01 1019.40 1019.78 1020.15 1020.48 1020.78 1021.03 1021.23 1021.38 1021.46 1021.50 1021.49 1021.44 1021.37 1021.29 1021.20 1021.11 1021.03 1020.96 1020.89 1020.81
Thickness
5723 5722 5720 5719 5718 5717 5716 5714 5714 5713 5713 5711 5711 5711 5710 5709 5707 5705 5705 5703 5703 5702 5701 5699 5697 5697 5696 5696 5696 5696 5695 5694 5688 5686 5686 5684 5683 5683 5681 5681 5681 5682 5681
5722 5721 5720 5718 5717 5717 5715 5714 5714 5713 5713 5712 5710 5710 5709 5707 5706 5704 5702 5701 5701 5700 5699 5698 5696 5694 5694 5694 5693 5694 5693 5692 5689 5684 5684 5683 5681 5680 5679 5678 5679 5679 5678
5721 5721 5720 5718 5717 5717 5715 5714 5713 5712 5711 5711 5710 5709 5707 5706 5704 5703 5702 5701 5699 5698 5697 5696 5695 5694 5692 5691 5691 5691 5690 5689 5687 5685 5682 5680 5679 5677 5676 5676 5676 5675 5676
5720 5720 5719 5718 5717 5716 5715 5713 5712 5711 5710 5710 5709 5708 5706 5705 5703 5702 5701 5699 5698 5696 5695 5693 5693 5692 5691 5690 5688 5688 5687 5686 5684 5683 5681 5679 5676 5675 5674 5673 5673 5672 5673
5719 5718 5718 5718 5716 5714 5712 5711 5710 5709 5708 5707 5707 5706 5704 5702 5701 5700 5699 5697 5696 5694 5692 5690 5688 5686 5684 5685 5685 5685 5684 5683 5682 5680 5678 5676 5675 5672 5671 5671 5670 5670 5669
5719 5718 5717 5716 5714 5712 5711 5709 5708 5707 5706 5705 5704 5703 5701 5699 5695 5693 5694 5695 5693 5692 5689 5687 5685 5683 5680 5678 5677 5677 5678 5679 5679 5677 5676 5674 5672 5670 5667 5667 5666 5666 5664
5719 5718 5715 5714 5712 5711 5709 5707 5705 5704 5703 5701 5700 5699 5698 5696 5691 5690 5688 5690 5690 5689 5688 5686 5683 5681 5679 5679 5675 5673 5672 5671 5670 5673 5673 5670 5668 5667 5664 5663 5662 5660 5657
5719 5716 5714 5712 5709 5708 5706 5704 5703 5702 5700 5699 5697 5697 5695 5692 5688 5686 5685 5686 5686 5686 5684 5683 5681 5680 5677 5677 5676 5675 5673 5671 5668 5668 5667 5665 5663 5660 5659 5657 5656 5655 5654
5718 5716 5714 5712 5709 5707 5705 5704 5703 5700 5699 5697 5695 5693 5692 5691 5686 5684 5682 5684 5683 5683 5681 5679 5678 5676 5671 5669 5671 5671 5669 5666 5662 5659 5658 5656 5654 5652 5651 5652 5651 5650 5649
5718 5716 5714 5712 5709 5707 5705 5704 5701 5698 5696 5695 5693 5692 5691 5690 5685 5682 5679 5683 5682 5680 5677 5675 5670 5670 5666 5665 5667 5667 5665 5664 5661 5658 5655 5652 5651 5649 5646 5646 5646 5644 5643
5718 5715 5712 5710 5708 5706 5704 5701 5698 5695 5693 5692 5690 5689 5688 5687 5683 5679 5677 5680 5679 5678 5675 5673 5670 5664 5662 5660 5660 5661 5659 5657 5656 5654 5653 5651 5648 5646 5643 5640 5638 5636 5635
5714 5711 5709 5707 5706 5703 5700 5697 5695 5692 5689 5688 5687 5686 5685 5683 5679 5676 5674 5673 5673 5674 5672 5670 5666 5660 5657 5655 5654 5652 5650 5648 5650 5649 5647 5645 5643 5640 5637 5634 5631 5628 5625
5710 5707 5705 5704 5702 5700 5697 5694 5691 5689 5688 5687 5686 5684 5683 5681 5677 5672 5670 5667 5666 5666 5666 5662 5659 5655 5652 5650 5647 5645 5644 5644 5644 5642 5641 5639 5636 5633 5629 5625 5623 5620 5617
5706 5704 5702 5700 5698 5696 5694 5693 5690 5688 5686 5685 5684 5682 5681 5678 5676 5672 5669 5665 5660 5658 5658 5654 5650 5648 5646 5644 5643 5641 5640 5639 5638 5636 5634 5631 5628 5624 5621 5618 5616 5613 5611
5702 5701 5699 5697 5695 5693 5691 5690 5689 5688 5687 5684 5683 5681 5678 5675 5674 5670 5668 5665 5662 5659 5655 5651 5648 5646 5644 5642 5640 5638 5635 5633 5630 5628 5626 5624 5621 5617 5614 5610 5606 5604 5602
5698 5696 5694 5692 5690 5688 5686 5683 5679 5680 5677 5676 5675 5675 5674 5671 5667 5663 5660 5657 5654 5650 5647 5647 5645 5642 5640 5638 5636 5633 5630 5627 5624 5621 5618 5615 5612 5609 5606 5602 5597 5595 5592
5693 5691 5688 5686 5685 5683 5681 5680 5677 5672 5669 5668 5667 5666 5664 5662 5659 5656 5652 5649 5645 5641 5641 5641 5640 5637 5635 5633 5630 5627 5625 5622 5618 5614 5610 5607 5604 5600 5597 5594 5590 5586 5583
5687 5683 5682 5680 5679 5678 5677 5675 5673 5671 5668 5666 5662 5658 5656 5654 5651 5648 5644 5640 5638 5635 5636 5635 5634 5631 5628 5625 5623 5620 5617 5613 5609 5605 5602 5598 5594 5591 5588 5585 5581 5576 5572
5679 5677 5675 5674 5673 5671 5670 5668 5667 5665 5664 5661 5659 5654 5648 5645 5642 5639 5636 5636 5636 5634 5631 5629 5627 5624 5621 5617 5614 5611 5608 5604 5600 5596 5593 5589 5585 5581 5578 5574 5570 5565 5558
5670 5667 5666 5666 5664 5663 5661 5660 5659 5657 5655 5653 5651 5648 5643 5639 5637 5633 5630 5630 5629 5627 5625 5622 5619 5615 5612 5608 5605 5601 5598 5594 5590 5587 5583 5579 5575 5571 5567 5562 5558 5554 5549
5662 5659 5655 5656 5656 5654 5652 5651 5649 5647 5646 5644 5641 5638 5633 5633 5631 5628 5625 5622 5620 5618 5615 5612 5609 5605 5601 5597 5594 5590 5587 5584 5580 5576 5572 5568 5563 5558 5554 5549 5544 5540 5535
5654 5653 5650 5648 5646 5644 5643 5641 5639 5637 5635 5633 5630 5627 5621 5622 5621 5619 5616 5613 5610 5606 5603 5600 5597 5593 5589 5585 5581 5578 5575 5572 5568 5564 5559 5554 5549 5544 5539 5535 5530 5526 5522
5645 5643 5641 5639 5636 5632 5632 5631 5629 5627 5625 5623 5620 5617 5613 5611 5610 5607 5604 5601 5597 5594 5591 5587 5583 5580 5575 5571 5567 5563 5561 5557 5552 5548 5543 5539 5534 5530 5525 5521 5516 5511 5507
5634 5632 5630 5628 5626 5624 5622 5620 5618 5615 5613 5612 5609 5606 5603 5600 5598 5595 5592 5588 5585 5581 5577 5573 5570 5566 5562 5557 5553 5548 5544 5539 5535 5530 5526 5522 5518 5514 5511 5506 5501 5496 5491
5622 5620 5618 5616 5614 5612 5610 5607 5605 5602 5600 5598 5596 5593 5590 5587 5584 5581 5578 5574 5570 5567 5563 5559 5555 5551 5547 5542 5537 5532 5527 5521 5516 5511 5507 5504 5501 5497 5494 5490 5486 5481 5477
5609 5607 5605 5603 5601 5598 5596 5593 5591 5589 5586 5583 5581 5578 5575 5573 5569 5566 5563 5559 5555 5552 5548 5544 5540 5535 5531 5526 5521 5515 5509 5504 5499 5493 5489 5487 5484 5481 5478 5474 5470 5467 5463